Temp
-15 -15 -15 -14 -16 -14 -14 -14 -14 -14 -14 -14 -13 -13 -14 -14 -14 -14 -14 -14 -14 -13 -13 -12 -12 -11 -11 -11 -11 -11 -11 -11 -11 -11 -11 -11 -11 -12 -12 -12 -12 -12 -12 -12
-15 -15 -15 -15 -15 -13 -14 -14 -14 -15 -14 -13 -14 -14 -14 -14 -13 -13 -13 -14 -14 -14 -13 -13 -12 -12 -12 -11 -12 -11 -11 -11 -11 -11 -11 -11 -11 -12 -12 -12 -12 -12 -12 -13
-16 -15 -16 -16 -15 -15 -14 -15 -15 -15 -14 -13 -14 -14 -14 -15 -14 -15 -15 -14 -14 -14 -14 -13 -13 -13 -12 -12 -12 -12 -12 -12 -12 -12 -12 -12 -12 -12 -12 -12 -12 -13 -13 -13
-16 -16 -16 -15 -15 -15 -15 -15 -14 -14 -14 -13 -14 -14 -14 -14 -14 -15 -15 -14 -14 -14 -14 -14 -13 -13 -13 -12 -12 -12 -12 -12 -12 -12 -12 -12 -12 -12 -12 -12 -13 -13 -13 -13
-16 -17 -17 -16 -16 -16 -15 -15 -14 -15 -15 -14 -14 -14 -14 -14 -14 -15 -15 -15 -15 -15 -16 -16 -14 -13 -13 -13 -12 -12 -12 -12 -12 -12 -12 -12 -12 -12 -12 -13 -13 -13 -13 -13
-17 -16 -16 -16 -16 -15 -15 -14 -14 -16 -15 -15 -14 -14 -14 -14 -15 -14 -15 -15 -15 -15 -16 -17 -15 -14 -13 -13 -13 -13 -12 -12 -12 -12 -12 -12 -12 -13 -13 -13 -13 -13 -13 -14
-17 -17 -16 -16 -15 -15 -15 -15 -15 -16 -15 -15 -14 -15 -15 -15 -15 -15 -15 -15 -15 -15 -15 -16 -16 -15 -14 -14 -13 -13 -13 -13 -12 -12 -12 -12 -12 -13 -13 -13 -13 -13 -14 -14
-17 -17 -16 -16 -15 -16 -15 -15 -15 -15 -15 -15 -15 -15 -15 -15 -15 -15 -15 -15 -15 -15 -15 -16 -15 -15 -15 -15 -14 -14 -13 -13 -13 -13 -13 -13 -13 -13 -14 -13 -13 -14 -14 -14
-17 -17 -17 -16 -16 -16 -15 -16 -16 -16 -15 -15 -16 -15 -14 -14 -15 -15 -15 -15 -15 -15 -16 -17 -16 -15 -15 -15 -14 -14 -14 -13 -13 -13 -13 -13 -13 -14 -14 -14 -14 -14 -14 -14
-17 -17 -16 -16 -17 -16 -15 -16 -16 -16 -15 -15 -15 -15 -15 -15 -15 -15 -15 -15 -14 -16 -17 -18 -16 -16 -15 -15 -14 -14 -14 -14 -14 -14 -14 -14 -14 -14 -14 -14 -14 -14 -14 -15
-18 -18 -17 -17 -16 -16 -16 -16 -16 -16 -15 -15 -15 -15 -15 -15 -15 -15 -15 -15 -15 -18 -18 -18 -17 -16 -15 -15 -15 -15 -15 -15 -15 -15 -14 -14 -14 -15 -15 -15 -15 -15 -15 -16
-18 -19 -18 -17 -17 -17 -16 -16 -16 -16 -15 -15 -15 -15 -15 -15 -15 -15 -15 -16 -17 -18 -18 -17 -17 -16 -16 -16 -16 -16 -15 -15 -15 -15 -15 -15 -15 -15 -15 -15 -15 -16 -16 -16
-18 -18 -17 -17 -17 -16 -16 -16 -16 -15 -15 -15 -15 -16 -15 -15 -15 -15 -15 -15 -16 -18 -18 -17 -17 -17 -17 -16 -16 -17 -16 -16 -16 -16 -15 -15 -15 -16 -16 -16 -16 -16 -16 -16
-18 -18 -18 -17 -17 -16 -16 -16 -16 -16 -16 -15 -16 -16 -15 -15 -15 -15 -15 -15 -16 -17 -19 -18 -17 -17 -17 -17 -17 -17 -17 -17 -17 -17 -16 -16 -16 -17 -16 -16 -17 -17 -17 -17
-19 -18 -18 -17 -17 -16 -17 -17 -16 -16 -16 -16 -16 -16 -15 -16 -15 -15 -15 -15 -16 -16 -17 -18 -18 -18 -17 -17 -18 -17 -17 -17 -17 -17 -16 -17 -16 -16 -17 -17 -17 -17 -17 -17
-19 -18 -17 -17 -17 -16 -16 -16 -16 -16 -16 -16 -16 -16 -15 -16 -16 -16 -16 -15 -15 -16 -17 -18 -18 -18 -19 -18 -18 -18 -17 -17 -17 -17 -17 -17 -17 -18 -18 -18 -17 -17 -18 -18
-18 -18 -18 -17 -16 -16 -16 -16 -16 -16 -16 -16 -15 -16 -16 -16 -16 -16 -16 -16 -15 -17 -19 -19 -18 -18 -18 -18 -18 -19 -18 -19 -18 -18 -18 -18 -18 -18 -18 -18 -18 -18 -18 -18
-18 -18 -18 -18 -18 -17 -16 -16 -16 -16 -16 -15 -15 -15 -16 -16 -16 -16 -16 -16 -16 -17 -18 -19 -20 -19 -19 -18 -19 -18 -18 -18 -18 -18 -18 -18 -18 -18 -18 -18 -18 -18 -19 -19
-18 -17 -17 -17 -17 -17 -16 -16 -16 -16 -16 -15 -15 -15 -16 -16 -16 -16 -16 -16 -16 -17 -18 -19 -19 -19 -19 -19 -19 -19 -19 -18 -18 -18 -19 -18 -18 -18 -18 -18 -18 -19 -19 -19
-18 -19 -18 -18 -17 -17 -16 -16 -16 -16 -15 -15 -15 -16 -16 -16 -16 -16 -16 -16 -17 -17 -17 -18 -18 -18 -19 -20 -19 -19 -19 -19 -19 -19 -18 -18 -18 -18 -18 -19 -19 -19 -19 -20
-18 -17 -17 -17 -17 -17 -17 -16 -16 -15 -15 -15 -15 -16 -16 -15 -16 -16 -16 -16 -17 -17 -17 -18 -18 -18 -19 -19 -20 -19 -19 -19 -18 -18 -18 -18 -18 -18 -19 -19 -19 -20 -20 -20
-18 -17 -17 -17 -17 -17 -16 -16 -15 -15 -15 -15 -16 -16 -16 -16 -16 -16 -16 -16 -16 -16 -17 -18 -18 -19 -19 -19 -19 -18 -18 -18 -18 -18 -18 -18 -19 -19 -19 -19 -20 -20 -20 -21
-18 -17 -17 -17 -17 -16 -15 -14 -14 -15 -15 -16 -16 -16 -16 -16 -16 -16 -16 -16 -15 -16 -17 -17 -18 -19 -18 -18 -18 -18 -18 -18 -18 -18 -18 -18 -19 -19 -20 -20 -20 -20 -21 -21
-18 -17 -17 -17 -16 -16 -15 -16 -16 -16 -16 -16 -16 -16 -16 -16 -16 -16 -15 -15 -16 -16 -17 -18 -18 -18 -18 -18 -18 -18 -18 -18 -18 -18 -18 -19 -19 -20 -20 -20 -20 -21 -22 -22
-17 -17 -17 -16 -15 -16 -16 -16 -16 -16 -16 -16 -16 -16 -16 -16 -16 -16 -16 -16 -16 -17 -17 -18 -18 -18 -18 -18 -18 -18 -18 -18 -18 -19 -19 -19 -20 -20 -20 -21 -21 -22 -22 -22
-18 -17 -16 -16 -16 -16 -16 -16 -16 -16 -16 -16 -16 -16 -16 -16 -16 -15 -16 -16 -17 -18 -18 -17 -17 -17 -18 -18 -18 -18 -18 -18 -19 -19 -19 -19 -20 -21 -21 -21 -22 -22 -22 -22
-17 -17 -17 -16 -16 -16 -16 -16 -17 -17 -16 -16 -16 -16 -16 -16 -16 -16 -17 -17 -18 -17 -17 -17 -18 -18 -18 -18 -18 -18 -19 -19 -19 -19 -20 -21 -21 -21 -21 -22 -22 -22 -22 -23
Height
5657 5674 5690 5700 5708 5721 5727 5736 5743 5752 5759 5765 5767 5773 5778 5784 5787 5794 5800 5806 5812 5820 5825 5828 5832 5837 5840 5845 5849 5852 5854 5856 5858 5859 5860 5860 5861 5860 5859 5856 5857 5855 5852 5851
5644 5662 5675 5689 5698 5710 5721 5728 5736 5744 5751 5753 5762 5768 5773 5776 5782 5787 5792 5799 5803 5811 5817 5822 5825 5829 5834 5837 5841 5842 5847 5848 5851 5852 5854 5855 5854 5853 5852 5851 5850 5850 5846 5842
5631 5649 5663 5677 5692 5702 5713 5719 5727 5734 5740 5748 5756 5762 5765 5770 5775 5779 5785 5790 5799 5804 5808 5814 5818 5823 5826 5830 5833 5835 5837 5840 5844 5846 5846 5847 5848 5847 5846 5844 5843 5841 5841 5834
5619 5636 5652 5665 5681 5690 5701 5709 5717 5727 5733 5746 5753 5757 5761 5762 5766 5771 5777 5782 5788 5794 5800 5806 5811 5816 5817 5820 5823 5826 5829 5833 5836 5838 5839 5839 5839 5839 5839 5838 5835 5833 5830 5829
5603 5620 5636 5653 5672 5679 5690 5702 5711 5722 5731 5738 5742 5745 5750 5753 5757 5763 5770 5777 5782 5784 5790 5798 5803 5807 5810 5811 5814 5817 5821 5825 5827 5829 5831 5830 5830 5832 5832 5831 5828 5825 5821 5821
5591 5610 5629 5645 5659 5673 5683 5695 5705 5715 5723 5730 5733 5743 5747 5750 5752 5755 5761 5769 5773 5778 5783 5787 5794 5798 5801 5805 5807 5809 5814 5816 5818 5820 5823 5820 5821 5827 5824 5823 5821 5817 5814 5811
5578 5599 5618 5636 5650 5666 5678 5691 5701 5711 5720 5724 5732 5734 5737 5740 5745 5749 5754 5761 5766 5771 5774 5779 5783 5787 5792 5796 5799 5803 5806 5808 5809 5812 5813 5810 5817 5816 5815 5813 5811 5808 5805 5802
5569 5590 5610 5627 5640 5655 5669 5682 5693 5703 5713 5717 5721 5727 5732 5734 5735 5738 5747 5753 5758 5762 5764 5769 5773 5778 5782 5789 5793 5796 5799 5801 5801 5802 5804 5804 5806 5807 5806 5804 5803 5799 5796 5792
5560 5583 5604 5624 5637 5649 5663 5674 5687 5695 5705 5712 5716 5720 5723 5724 5727 5733 5739 5745 5749 5753 5754 5760 5763 5770 5777 5781 5786 5789 5791 5793 5793 5794 5794 5794 5799 5799 5796 5793 5792 5789 5786 5781
5553 5576 5598 5613 5626 5645 5656 5670 5680 5689 5700 5705 5709 5715 5719 5719 5722 5728 5734 5737 5738 5740 5744 5752 5759 5762 5768 5772 5777 5782 5783 5783 5784 5785 5785 5786 5789 5787 5785 5784 5784 5779 5775 5771
5547 5570 5590 5605 5623 5636 5649 5663 5674 5685 5694 5698 5703 5709 5711 5714 5718 5724 5727 5729 5729 5735 5741 5747 5752 5757 5761 5764 5769 5773 5774 5774 5778 5778 5777 5779 5779 5777 5776 5773 5770 5767 5763 5759
5543 5564 5585 5602 5620 5632 5647 5659 5670 5677 5687 5693 5697 5701 5704 5706 5709 5715 5719 5725 5728 5732 5736 5743 5747 5750 5754 5758 5759 5764 5767 5768 5770 5772 5771 5769 5767 5767 5765 5762 5759 5755 5751 5747
5540 5561 5578 5600 5613 5629 5642 5655 5666 5675 5682 5688 5692 5694 5697 5699 5705 5712 5716 5718 5721 5725 5730 5735 5735 5739 5745 5749 5752 5757 5759 5760 5761 5761 5762 5759 5757 5756 5753 5750 5747 5744 5740 5734
5538 5559 5577 5593 5612 5625 5639 5650 5662 5669 5676 5681 5688 5690 5693 5697 5701 5706 5711 5714 5714 5717 5719 5724 5727 5733 5739 5743 5747 5749 5752 5751 5752 5751 5750 5749 5747 5744 5742 5739 5735 5731 5726 5720
5537 5557 5575 5593 5606 5621 5635 5647 5655 5663 5670 5675 5680 5683 5685 5690 5695 5700 5704 5706 5706 5708 5711 5714 5720 5727 5732 5734 5736 5741 5741 5742 5742 5742 5740 5739 5737 5734 5732 5728 5724 5719 5713 5706
5537 5557 5576 5591 5604 5619 5628 5637 5646 5655 5664 5669 5674 5680 5682 5686 5689 5693 5697 5699 5700 5702 5704 5707 5714 5721 5723 5725 5729 5732 5731 5730 5730 5732 5730 5728 5726 5724 5720 5717 5711 5705 5699 5693
5543 5559 5571 5585 5600 5613 5626 5638 5648 5655 5659 5664 5669 5672 5676 5680 5684 5688 5691 5693 5695 5696 5697 5703 5708 5711 5713 5718 5722 5723 5721 5720 5720 5720 5719 5718 5715 5711 5708 5703 5698 5693 5688 5683
5541 5556 5571 5584 5596 5611 5622 5631 5641 5647 5652 5658 5661 5666 5671 5675 5680 5682 5685 5687 5687 5688 5691 5696 5699 5702 5704 5709 5715 5714 5713 5712 5711 5710 5708 5705 5702 5699 5695 5691 5685 5681 5677 5672
5535 5550 5565 5580 5594 5605 5616 5627 5634 5640 5648 5652 5658 5662 5665 5670 5673 5675 5676 5679 5679 5682 5685 5688 5692 5695 5697 5704 5704 5704 5704 5703 5701 5699 5696 5693 5690 5687 5682 5678 5674 5670 5666 5662
5535 5550 5566 5576 5591 5603 5613 5622 5629 5636 5642 5648 5652 5657 5660 5665 5668 5669 5673 5674 5673 5673 5678 5680 5683 5688 5692 5693 5693 5691 5691 5691 5688 5686 5684 5682 5679 5676 5672 5668 5665 5661 5657 5651
5536 5550 5563 5577 5588 5597 5605 5614 5622 5629 5635 5641 5646 5650 5656 5660 5662 5664 5665 5664 5664 5667 5673 5674 5676 5681 5682 5680 5680 5681 5679 5678 5677 5676 5675 5672 5669 5665 5662 5659 5655 5651 5645 5638
5540 5553 5564 5572 5582 5591 5601 5611 5619 5624 5631 5638 5643 5647 5651 5654 5655 5656 5658 5658 5661 5663 5666 5664 5667 5673 5671 5671 5669 5669 5669 5669 5668 5667 5665 5662 5659 5656 5653 5650 5645 5639 5633 5626
5538 5551 5561 5570 5581 5589 5599 5605 5613 5622 5631 5637 5641 5644 5645 5646 5649 5651 5652 5653 5654 5657 5657 5658 5661 5660 5659 5660 5660 5660 5661 5661 5660 5658 5656 5654 5651 5648 5644 5640 5633 5627 5621 5615
5541 5551 5562 5570 5580 5590 5600 5609 5618 5625 5627 5630 5633 5636 5639 5642 5643 5645 5647 5648 5649 5649 5650 5651 5651 5652 5652 5653 5654 5654 5654 5653 5652 5650 5647 5645 5642 5638 5634 5628 5622 5616 5610 5602
5543 5553 5562 5572 5581 5590 5598 5606 5612 5615 5620 5623 5626 5630 5634 5635 5637 5638 5641 5642 5641 5643 5644 5644 5646 5647 5648 5648 5648 5648 5647 5646 5644 5642 5640 5637 5633 5629 5623 5618 5612 5605 5597 5589
5546 5556 5565 5575 5584 5590 5596 5601 5606 5611 5615 5617 5621 5625 5627 5629 5632 5634 5634 5635 5636 5637 5637 5640 5641 5642 5642 5643 5643 5642 5641 5639 5637 5635 5632 5628 5624 5618 5612 5606 5599 5592 5585 5575
5548 5558 5566 5574 5579 5585 5591 5597 5601 5606 5609 5613 5617 5619 5621 5623 5625 5626 5627 5629 5631 5633 5635 5637 5637 5637 5637 5637 5636 5636 5634 5632 5630 5626 5623 5618 5613 5607 5600 5594 5588 5580 5572 5562
Wind_Speed
80 78 61 53 55 59 55 53 50 43 38 36 35 36 38 48 49 50 49 41 58 45 38 39 43 44 45 43 40 39 36 34 33 30 29 28 26 24 26 29 28 28 28 29
81 79 76 58 56 51 59 56 48 46 43 41 35 38 41 42 49 50 55 49 51 48 45 40 40 43 44 44 44 43 40 40 37 34 32 31 30 28 30 32 32 28 32 35
81 80 75 72 64 60 57 59 54 49 49 43 35 33 40 47 49 52 50 50 50 55 46 46 41 38 42 42 45 44 45 43 40 38 36 35 34 33 33 33 32 32 33 38
83 81 75 60 73 58 65 57 54 49 45 35 33 30 32 39 46 51 47 47 48 41 59 50 46 38 38 44 45 44 45 43 42 42 40 38 37 35 34 35 35 35 38 37
90 93 70 75 67 69 62 58 58 47 39 38 36 34 30 33 40 51 49 38 40 38 53 54 47 45 39 43 42 43 46 42 42 45 43 42 41 38 36 36 37 37 39 38
92 95 90 72 68 70 70 62 54 46 43 39 40 38 37 35 40 45 52 43 39 37 48 51 49 46 44 41 38 40 45 40 40 44 45 46 44 36 38 38 39 42 41 41
93 92 87 84 67 68 60 60 55 43 39 35 33 36 34 35 38 42 38 40 41 38 51 47 53 52 44 45 40 40 36 37 38 41 45 49 41 37 38 39 40 43 44 44
93 94 89 89 58 59 58 56 51 46 38 31 30 21 28 36 41 44 49 47 41 39 51 52 49 56 55 43 43 41 37 35 34 39 41 44 42 37 39 41 41 44 45 46
95 96 82 70 77 71 59 60 54 48 39 34 32 33 30 31 38 38 38 43 48 50 51 54 51 49 51 51 43 39 37 37 37 38 42 43 40 38 41 43 43 43 45 46
94 94 88 68 69 69 47 54 49 41 37 36 37 33 30 29 34 36 36 35 38 49 53 48 44 43 46 48 40 37 36 34 36 38 41 41 37 38 41 43 45 46 46 45
93 90 90 75 75 65 65 56 43 47 38 36 37 35 34 30 35 33 27 30 36 46 46 45 43 41 42 46 42 36 38 39 36 37 39 39 38 41 43 44 46 46 44 43
92 90 87 79 70 62 63 44 50 46 39 36 35 30 31 32 35 35 27 32 38 45 44 41 43 41 40 43 47 39 37 36 34 35 36 37 39 41 43 44 44 44 43 46
91 88 83 66 57 62 51 50 45 39 33 38 38 30 27 32 36 34 29 31 41 49 47 43 44 44 38 43 44 37 33 32 32 37 39 43 46 47 48 47 46 45 49 56
92 91 84 77 62 56 53 54 46 37 36 38 33 29 29 32 39 37 30 30 37 54 52 50 49 45 38 35 32 33 32 34 38 42 46 46 49 47 45 46 46 54 56 60
80 85 86 79 61 55 48 48 43 41 38 35 30 28 31 31 33 32 29 28 36 45 58 56 46 44 43 44 41 42 40 37 37 38 41 45 44 43 43 46 52 59 66 63
81 82 79 73 63 61 50 50 47 40 39 39 33 26 29 34 33 32 30 28 32 40 54 58 54 42 40 40 38 38 42 43 45 43 41 40 40 42 47 56 59 54 53 50
70 73 78 61 61 51 56 46 41 37 37 34 31 30 30 32 34 33 31 30 30 37 41 34 33 36 39 36 37 37 40 39 39 41 45 49 51 52 56 55 50 50 48 46
69 65 79 66 59 49 55 46 44 40 39 36 35 32 32 33 34 33 32 31 31 35 40 41 42 40 42 38 32 37 41 44 47 48 47 46 48 52 51 48 48 46 45 45
57 65 72 67 57 57 49 44 38 36 36 38 35 29 28 27 26 27 30 32 34 36 39 43 45 44 40 34 36 40 46 47 44 42 43 47 48 47 45 43 43 44 44 45
74 60 71 57 60 52 47 45 40 39 38 35 32 31 29 26 26 27 30 33 36 37 37 39 42 39 37 42 43 46 44 42 39 38 41 43 43 42 40 41 42 43 44 46
66 62 56 55 57 51 50 48 43 41 41 38 35 31 28 28 29 31 32 30 32 32 31 36 35 33 35 37 37 39 39 37 37 39 39 39 38 38 39 40 41 43 45 47
57 57 54 52 60 59 55 48 43 41 37 33 32 28 27 28 25 27 26 26 27 26 25 30 28 26 34 36 38 38 38 36 36 37 36 36 36 37 38 40 42 44 47 49
60 56 47 50 48 50 48 42 38 34 26 24 25 30 29 28 27 25 25 23 26 27 28 25 20 24 30 30 31 31 30 31 30 30 31 33 34 36 38 41 44 47 49 52
52 47 48 49 46 42 38 31 24 23 26 26 31 33 31 28 28 27 27 26 26 24 18 17 21 21 22 23 22 23 24 25 27 28 30 32 35 38 41 44 46 48 51 52
58 51 47 43 39 35 32 29 29 32 27 29 29 29 30 30 27 27 26 26 24 19 16 15 16 17 17 18 19 20 22 24 26 28 31 34 38 40 43 45 47 49 52 56
51 43 41 39 36 33 31 29 31 30 29 30 28 28 27 27 26 25 25 22 17 15 14 13 14 14 15 16 18 20 22 25 28 31 34 37 39 42 44 46 49 53 57 61
48 41 37 37 37 36 34 34 31 28 27 28 26 25 25 25 23 21 16 14 14 14 13 12 12 13 15 17 19 22 25 27 30 33 36 37 41 44 47 50 54 58 62 65
Wind_Direction
204 203 200 207 199 215 216 217 220 217 215 220 223 224 226 226 231 232 237 237 219 223 222 224 225 226 224 225 229 234 238 241 244 246 251 255 261 267 273 274 278 285 293 294
204 200 198 191 204 209 216 217 220 217 218 230 226 227 228 225 230 235 237 236 222 217 222 226 227 225 227 228 230 232 238 240 244 247 250 257 261 265 270 276 282 289 291 297
200 200 202 197 204 208 207 221 220 216 217 225 233 229 234 232 234 236 237 239 235 222 226 227 230 233 230 232 233 234 238 241 245 250 252 256 261 265 270 274 281 286 291 293
197 198 195 193 196 203 210 213 219 218 223 218 234 243 241 235 236 232 235 240 243 254 223 229 231 234 234 234 234 237 241 244 247 251 255 259 263 266 271 277 280 285 288 290
197 197 187 190 203 213 214 211 220 220 225 223 235 233 232 239 239 231 229 237 247 245 217 223 233 234 236 238 235 240 245 244 247 252 255 261 264 269 273 276 279 282 285 293
198 198 200 201 201 207 209 215 220 217 221 223 234 240 251 249 238 237 233 235 235 230 215 220 228 234 238 242 244 245 248 248 250 255 258 262 264 271 273 275 280 283 288 288
197 197 199 200 197 197 205 213 214 217 224 227 234 240 239 238 239 231 219 227 229 242 216 221 228 234 239 242 243 250 251 251 252 257 259 263 266 268 272 275 279 283 286 290
194 196 197 193 192 202 207 205 210 213 216 214 221 233 239 236 235 231 225 227 232 251 223 220 225 232 236 246 247 251 254 254 256 259 261 265 266 271 273 275 277 282 288 291
192 191 185 193 204 201 204 209 210 213 209 221 227 237 247 239 236 233 229 231 240 249 229 216 224 228 235 243 249 251 254 256 258 261 264 266 271 274 276 278 281 285 289 290
191 193 192 193 191 196 200 206 201 204 213 218 230 239 243 243 234 225 231 244 246 233 216 219 228 232 230 236 245 249 254 258 261 263 266 270 276 279 279 283 288 290 293 293
189 190 190 194 193 198 202 198 206 209 214 220 231 237 233 238 227 228 243 246 235 216 218 225 234 241 235 233 242 256 254 257 262 267 272 275 277 280 283 287 290 291 291 291
187 189 192 192 193 206 202 201 208 206 208 218 233 240 226 229 226 223 233 238 222 218 222 228 233 239 239 237 238 249 254 259 264 269 273 278 283 285 288 291 291 288 289 295
185 183 186 185 197 192 195 199 199 201 208 223 230 230 229 222 218 225 239 245 235 223 221 228 233 236 235 243 246 251 260 263 270 271 274 275 279 283 289 291 290 292 294 296
186 187 186 193 188 194 200 195 199 201 211 220 222 230 228 220 222 231 240 244 240 228 224 228 235 238 240 244 250 254 259 264 269 270 270 273 282 285 281 283 287 290 293 296
188 186 188 190 190 181 179 187 195 203 211 216 223 227 226 223 227 232 237 246 245 238 229 228 234 239 243 247 249 254 259 261 267 271 273 278 280 281 284 287 290 292 295 296
180 183 183 189 193 189 185 189 198 208 205 214 222 228 227 225 229 238 244 254 255 246 239 236 238 247 250 251 255 262 266 267 269 271 273 277 281 283 285 288 294 297 299 297
175 185 181 184 176 184 189 194 201 205 206 216 228 225 225 226 232 240 247 251 254 252 231 231 233 234 239 247 258 257 262 260 263 268 270 274 278 285 289 292 292 298 296 295
173 182 192 196 197 193 195 194 199 203 213 221 228 230 231 233 239 245 249 251 253 252 244 237 238 243 252 257 260 263 263 266 276 281 283 286 287 288 287 290 295 295 295 296
175 177 184 189 189 188 187 194 196 205 213 219 226 237 235 232 242 250 250 247 252 252 245 243 247 252 255 254 253 260 266 273 282 279 281 284 286 288 289 292 294 295 296 299
183 184 186 194 188 186 189 193 203 212 216 220 227 227 225 237 248 249 248 253 258 259 256 255 252 249 249 252 259 269 276 278 277 280 282 285 286 290 291 293 295 297 299 301
175 177 180 182 186 185 194 201 203 207 215 220 226 225 225 238 244 246 249 253 253 256 258 254 257 258 260 262 264 271 274 278 281 281 282 286 289 291 293 296 297 298 301 305
173 181 177 180 188 194 195 201 206 211 216 221 224 222 230 236 244 246 247 250 252 258 257 256 257 256 256 261 268 275 277 276 276 280 284 287 291 294 296 297 300 304 306 307
173 171 175 178 182 189 195 200 207 210 221 231 226 228 234 240 245 247 245 254 260 262 258 263 269 258 260 267 270 273 275 277 278 282 286 292 295 298 300 303 305 306 307 307
187 183 184 191 192 195 202 208 207 213 218 221 222 226 233 241 239 237 245 257 260 264 280 269 259 266 266 268 271 271 273 279 285 289 295 298 300 301 303 305 305 306 307 308
181 178 184 189 191 198 207 209 209 217 221 222 223 228 235 237 239 246 254 256 264 277 281 270 260 262 263 268 274 281 287 290 295 299 300 301 302 303 303 304 306 308 310 312
184 186 187 193 203 207 208 210 216 220 225 226 229 232 236 243 249 254 260 267 270 269 260 255 258 268 276 282 286 290 295 300 302 301 302 303 303 304 306 308 311 312 313 314
188 193 199 200 201 204 210 215 220 219 221 226 232 240 244 247 251 256 256 243 240 241 252 263 268 278 288 292 298 301 301 302 302 302 302 305 307 309 311 312 312 314 313 312